Brownwood, TX

5:03 AM CST on January 18, 2018 (GMT -0600)
Brownwood Regional

Weather History for KBWD - October, 2012

Change the Weather History Date:

Wednesday, October 17, 2012

  Actual Average (KABI) Record (KABI)
Temperature  
Mean Temperature 72 °F -  
Max Temperature 86 °F 74 °F 95 °F (2011)
Min Temperature 59 °F 51 °F 39 °F (1922)
Cooling Degree Days 8    
Growing Degree Days 22 (Base 50)    
Moisture  
Dew Point 55 °F    
Average Humidity 59    
Maximum Humidity 100    
Minimum Humidity 23    
Precipitation  
Precipitation 0.00 in - - ()
Sea Level Pressure  
Sea Level Pressure 29.72 in    
Wind  
Wind Speed 9 mph (West)    
Max Wind Speed 21 mph    
Max Gust Speed 28 mph    
Visibility 10 miles    
Events      
Averages and records for this station are not official NWS values.
T = Trace of Precipitation, MM = Missing Value Source: NWS Daily Summary

Daily Weather History Graph

Daily Weather History Graph

Search for Another Location

Airport or City:

Trip Planner

Search our weather history database for the weather conditions in past years. The results will help you decide how hot, cold, wet, or windy it might be!

Date:

Astronomy

Oct. 17, 2012 Rise Set
Actual Time 7:40 AM CDT 7:00 PM CDT
Civil Twilight 7:16 AM CDT 7:25 PM CDT
Nautical Twilight 6:47 AM CDT 7:53 PM CDT
Astronomical Twilight 6:19 AM CDT 8:21 PM CDT
Moon 10:06 AM CDT (10/17) 8:49 PM CDT (10/17)
Length of Visible Light 12h 09m
Length of Day
11h 19m
Waxing Crescent, 7% of the Moon is Illuminated
Oct 17
Waxing Crescent
Oct 21
First Quarter
Oct 29
Full
Nov 6
Last Quarter
Nov 13
New

Hourly Weather History & Observations

Time (CDT) Temp. Heat Index Dew Point Humidity Pressure Visibility Wind Dir Wind Speed Gust Speed Precip Events Conditions
12:15 AM 66.2 °F - 64.4 °F 94% 29.74 in 10.0 mi SSE 6.9 mph - N/A   Clear
12:35 AM 66.2 °F - 64.4 °F 94% 29.74 in 10.0 mi North - - N/A   Clear
12:55 AM 66.2 °F - 64.4 °F 94% 29.73 in 10.0 mi North - - N/A   Clear
1:15 AM 66.2 °F - 64.4 °F 94% 29.73 in 9.0 mi North - - N/A   Partly Cloudy
1:35 AM 66.2 °F - 64.4 °F 94% 29.73 in 10.0 mi South 6.9 mph - N/A   Scattered Clouds
1:55 AM 66.2 °F - 64.4 °F 94% 29.73 in 10.0 mi South 9.2 mph - N/A   Scattered Clouds
2:15 AM 66.2 °F - 64.4 °F 94% 29.73 in 9.0 mi South 9.2 mph - N/A   Partly Cloudy
2:55 AM 66.2 °F - 64.4 °F 94% 29.72 in 10.0 mi South 10.4 mph - N/A   Clear
3:15 AM 66.2 °F - 64.4 °F 94% 29.71 in 8.0 mi SSE 10.4 mph - N/A   Partly Cloudy
3:35 AM 66.2 °F - 64.4 °F 94% 29.71 in 8.0 mi South 8.1 mph - N/A   Partly Cloudy
3:55 AM 66.2 °F - 64.4 °F 94% 29.71 in 9.0 mi South 8.1 mph - N/A   Partly Cloudy
4:15 AM 66.2 °F - 64.4 °F 94% 29.70 in 9.0 mi South 10.4 mph - N/A   Partly Cloudy
4:35 AM 66.2 °F - 64.4 °F 94% 29.69 in 10.0 mi South 10.4 mph - N/A   Clear
5:15 AM 66.2 °F - 64.4 °F 94% 29.69 in 10.0 mi South 12.7 mph - N/A   Clear
5:55 AM 66.2 °F - 64.4 °F 94% 29.67 in 10.0 mi South 13.8 mph - N/A   Clear
6:15 AM 66.2 °F - 64.4 °F 94% 29.68 in 10.0 mi South 9.2 mph - N/A   Clear
6:35 AM 66.2 °F - 64.4 °F 94% 29.68 in 10.0 mi South 8.1 mph - N/A   Clear
6:55 AM 66.2 °F - 64.4 °F 94% 29.68 in 10.0 mi South 9.2 mph - N/A   Clear
7:15 AM 66.2 °F - 64.4 °F 94% 29.69 in 10.0 mi South 6.9 mph - N/A   Clear
7:55 AM 64.4 °F - 64.4 °F 100% 29.69 in 7.0 mi South 6.9 mph - N/A   Clear
8:15 AM 66.2 °F - 64.4 °F 94% 29.69 in 7.0 mi SSE 8.1 mph - N/A   Clear
8:35 AM 66.2 °F - 64.4 °F 94% 29.69 in 8.0 mi South 8.1 mph - N/A   Clear
8:55 AM 68.0 °F - 64.4 °F 88% 29.68 in 9.0 mi South 10.4 mph - N/A   Clear
9:15 AM 69.8 °F - 64.4 °F 83% 29.68 in 10.0 mi SSW 11.5 mph - N/A   Clear
9:35 AM 71.6 °F - 64.4 °F 78% 29.69 in 10.0 mi SSW 10.4 mph 16.1 mph N/A   Clear
9:55 AM 73.4 °F - 64.4 °F 73% 29.70 in 10.0 mi SW 13.8 mph 18.4 mph N/A   Clear
10:15 AM 75.2 °F - 64.4 °F 69% 29.70 in 10.0 mi SW 12.7 mph 18.4 mph N/A   Clear
10:35 AM 75.2 °F - 64.4 °F 69% 29.70 in 10.0 mi SW 11.5 mph 16.1 mph N/A   Clear
10:55 AM 78.8 °F - 64.4 °F 61% 29.72 in 10.0 mi West 12.7 mph - N/A   Clear
11:15 AM 80.6 °F 81.8 °F 62.6 °F 54% 29.71 in 10.0 mi WSW 17.3 mph 25.3 mph N/A   Clear
11:35 AM 80.6 °F 81.1 °F 59.0 °F 48% 29.70 in 10.0 mi West 18.4 mph 23.0 mph N/A   Clear
11:55 AM 82.4 °F 82.0 °F 57.2 °F 42% 29.70 in 10.0 mi West 20.7 mph 25.3 mph N/A   Clear
12:15 PM 82.4 °F 81.7 °F 55.4 °F 39% 29.71 in 10.0 mi West 16.1 mph 27.6 mph N/A   Clear
12:35 PM 82.4 °F 81.7 °F 55.4 °F 39% 29.70 in 10.0 mi WNW 11.5 mph 25.3 mph N/A   Clear
12:55 PM 84.2 °F 83.0 °F 55.4 °F 37% 29.70 in 10.0 mi WNW 12.7 mph - N/A   Clear
1:15 PM 84.2 °F 82.8 °F 53.6 °F 35% 29.70 in 10.0 mi NW 12.7 mph 21.9 mph N/A   Clear
1:35 PM 84.2 °F - 51.8 °F 33% 29.69 in 10.0 mi NW 8.1 mph 19.6 mph N/A   Clear
1:55 PM 84.2 °F - 46.4 °F 27% 29.69 in 10.0 mi NW 11.5 mph 19.6 mph N/A   Clear
2:15 PM 84.2 °F - 46.4 °F 27% 29.68 in 10.0 mi NNW 9.2 mph - N/A   Clear
2:35 PM 84.2 °F - 46.4 °F 27% 29.68 in 10.0 mi NW 8.1 mph 18.4 mph N/A   Clear
2:55 PM 86.0 °F - 46.4 °F 25% 29.68 in 10.0 mi NNW 9.2 mph 16.1 mph N/A   Clear
3:15 PM 86.0 °F - 44.6 °F 23% 29.67 in 10.0 mi NW 11.5 mph - N/A   Clear
3:35 PM 86.0 °F - 44.6 °F 23% 29.67 in 10.0 mi NW 10.4 mph - N/A   Clear
3:55 PM 86.0 °F - 44.6 °F 23% 29.68 in 10.0 mi NW 11.5 mph 17.3 mph N/A   Clear
4:15 PM 86.0 °F - 44.6 °F 23% 29.68 in 10.0 mi NW 10.4 mph - N/A   Clear
4:35 PM 86.0 °F - 44.6 °F 23% 29.68 in 10.0 mi NNW 8.1 mph 16.1 mph N/A   Clear
4:55 PM 86.0 °F - 44.6 °F 23% 29.69 in 10.0 mi NNW 8.1 mph 16.1 mph N/A   Clear
5:15 PM 84.2 °F - 44.6 °F 25% 29.70 in 10.0 mi NW 10.4 mph - N/A   Clear
5:35 PM 84.2 °F - 42.8 °F 23% 29.71 in 10.0 mi North 9.2 mph 16.1 mph N/A   Clear
5:55 PM 82.4 °F - 42.8 °F 25% 29.71 in 10.0 mi North 9.2 mph - N/A   Clear
6:15 PM 82.4 °F - 44.6 °F 26% 29.72 in 10.0 mi NNW 9.2 mph - N/A   Clear
6:55 PM 80.6 °F - 42.8 °F 26% 29.74 in 10.0 mi North 6.9 mph - N/A   Clear
7:15 PM 77.0 °F - 42.8 °F 29% 29.75 in 10.0 mi North 5.8 mph - N/A   Clear
7:35 PM 75.2 °F - 42.8 °F 31% 29.75 in 10.0 mi NNE 5.8 mph - N/A   Clear
7:55 PM 71.6 °F - 42.8 °F 35% 29.76 in 10.0 mi NE 4.6 mph - N/A   Clear
8:15 PM 71.6 °F - 44.6 °F 38% 29.77 in 10.0 mi NE 4.6 mph - N/A   Clear
8:35 PM 66.2 °F - 44.6 °F 46% 29.78 in 10.0 mi NE 4.6 mph - N/A   Clear
8:55 PM 68.0 °F - 46.4 °F 46% 29.78 in 10.0 mi ENE 5.8 mph - N/A   Clear
9:15 PM 68.0 °F - 46.4 °F 46% 29.79 in 10.0 mi NNE 4.6 mph - N/A   Clear
9:35 PM 66.2 °F - 46.4 °F 49% 29.80 in 10.0 mi NNE 4.6 mph - N/A   Partly Cloudy
9:55 PM 64.4 °F - 46.4 °F 52% 29.80 in 10.0 mi NE 3.5 mph - N/A   Partly Cloudy
10:15 PM 64.4 °F - 44.6 °F 49% 29.80 in 10.0 mi Calm Calm - N/A   Partly Cloudy
10:55 PM 59.0 °F - 46.4 °F 63% 29.81 in 10.0 mi Calm Calm - N/A   Clear
11:15 PM 60.8 °F - 44.6 °F 55% 29.81 in 2.5 mi NE 3.5 mph - N/A   Haze
11:35 PM 64.4 °F - 42.8 °F 45% 29.81 in 4.0 mi NNE 5.8 mph - N/A   Haze
11:55 PM 66.2 °F - 42.8 °F 43% 29.81 in 10.0 mi NE 4.6 mph - N/A   Clear